{"data":{"norad_id":67648,"intl_designator":"2026-022A","name":"STARLINK-36719","alt_names":[],"object_type":"PAYLOAD","status":"ACTIVE","operator":null,"country":"US","launch_date":"2026-02-02","launch_site_code":"AFWTR","launch_vehicle":null,"mission":null,"orbit_class":"UNKNOWN","rcs_meters":null,"size_class":null,"mass_kg":null,"dimensions":null,"purposes":["comms"],"wikipedia_slug":null,"has_3d_model":false,"image_url":null,"decayed_at":null,"tle_current":{"epoch":"2026-09-19T08:02:09.231648Z","epoch_age_seconds":169922,"freshness":"FRESH","line1":"1 67648U 26022A   26262.33482907  .00034000  00000+0  10473-2 0  9990","line2":"2 67648  97.2829 293.8382 0003943 106.2549 253.9128 15.33542840 35240","mean_motion":15.3354284,"eccentricity":0.0003943,"inclination_deg":97.2829,"raan_deg":293.8382,"arg_perigee_deg":106.2549,"mean_anomaly_deg":253.9128,"bstar":0.0010473,"rev_number":3524,"period_min":93.90021344301,"perigee_km":462.55373863452,"apogee_km":467.95043526849,"semimajor_km":6843.3890869515,"source":"CELESTRAK","updated_at":"2026-09-20T09:00:43.617598Z"}}}